Flag for Venezuela Weather past 2 weeks in Caracas, Venezuela

Now
79 °F

Clear.


Feels Like: 81 °F
Forecast: 62 / 76 °F
Wind: No wind

Location: Caracas / Maiquetia Aerop. Intl. Simon Bolivar

Current Time: Aug 1, 2014 at 4:23:56 AM

Latest Report: Aug 1, 2014 at 3:30 AM


Visibility: 10 mi

Pressure: 29.86 "Hg

Humidity: 74%

Dew point: 70 °F

Location of CaracasLocation

Historic Weather in Caracas — Graph

°F

Caracas temperature yesterday

Maximum temperature yesterday: 90 °F (at 12:30 PM)
Minimum temperature yesterday: 77 °F (at 12:30 AM)
Average temperature yesterday: 83 °F

Past Weeks' High & Low Weather Summary

 TemperatureHumidityPressure
High90 °F (Jul 24, 12:30 PM)94% (Jul 30, 2:30 PM)30.04 "Hg (Jul 30, 2:30 PM)
Low75 °F (Jul 22, 5:30 AM)55% (Jul 22, 11:30 AM)29.83 "Hg (Jul 31, 4:30 PM)
Average81 °F75%29.94 "Hg
* Reported Jul 17 3:30 AM — Aug 1 3:30 AM, Caracas, Weather by CustomWeather, © 2014

Note: Actual official high and low records may vary slightly from our data, if they occured in-between our weather recording intervals... More about our weather records

Advertising

Caracas weather history for previous 24 hours

 ConditionsComfort  
Time TempWeatherWind HumidityBarometerVisibility
3:30 AM
Aug 1
79 °FClear.No wind74%29.86 "Hg10 mi
2:30 AM79 °FClear.No wind74%29.86 "Hg10 mi
1:30 AM79 °FClear.No wind74%29.86 "Hg10 mi
12:30 AM81 °FClear.No wind74%29.89 "Hg10 mi
11:30 PM
Jul 31
82 °FClear.No wind74%29.89 "Hg10 mi
10:30 PM81 °FClear.No wind74%29.89 "Hg10 mi
9:30 PM82 °FClear.2 mph74%29.89 "Hg10 mi
8:30 PM82 °FPassing clouds.No wind74%29.86 "HgN/A
7:30 PM82 °FPassing clouds.No wind74%29.86 "HgN/A
6:30 PM84 °FPassing clouds.No wind70%29.83 "HgN/A
5:30 PM88 °FPassing clouds.1 mph62%29.83 "HgN/A
4:30 PM88 °FScattered clouds.3 mph62%29.83 "HgN/A
3:30 PM88 °FScattered clouds.5 mph66%29.89 "HgN/A
2:30 PM90 °FScattered clouds.9 mph63%29.86 "HgN/A
1:30 PM88 °FScattered clouds.5 mph70%29.89 "HgN/A
12:30 PM90 °FScattered clouds.7 mph63%29.92 "HgN/A
11:30 AM88 °FScattered clouds.8 mph62%29.92 "HgN/A
10:30 AM88 °FScattered clouds.8 mph62%29.92 "HgN/A
9:30 AM84 °FScattered clouds.5 mph70%29.95 "HgN/A
8:30 AM81 °FPassing clouds.3 mph74%29.92 "HgN/A
7:30 AM79 °FScattered clouds.2 mph79%29.89 "HgN/A
6:30 AM77 °FPassing clouds.No wind83%29.95 "HgN/A
5:30 AM77 °FPassing clouds.No wind83%29.92 "HgN/A
4:30 AM77 °FPassing clouds.No wind89%29.92 "HgN/A
Weather by CustomWeather, © 2014

See weather overviewHow to use our weather pages